Wind_Speed
20 20 21 21 21 21 21 21 20 20 20 20 20 20 20 20 20 20 20 20 21 21 21 22 22 22 23 23 24 24 25 25 26 26 27 27 28 28 29 30 31 32 33 34 34 35 36 37 37 38 39 40
20 20 20 20 20 20 20 20 20 20 20 19 19 19 19 19 20 20 20 21 21 21 22 22 22 23 23 23 24 24 25 25 26 26 27 28 28 29 30 31 33 34 35 35 36 37 38 39 39 40 41 42
20 20 20 21 21 21 21 21 21 20 20 20 20 20 20 20 20 21 21 21 22 22 22 22 23 23 23 23 24 24 25 26 26 27 28 29 30 31 32 33 35 36 36 37 38 39 39 40 41 43 44 45
21 21 21 21 21 21 21 21 21 21 21 21 21 21 21 21 21 21 21 22 22 22 22 22 23 23 23 24 24 25 26 27 28 28 29 30 32 33 34 35 36 37 38 38 39 40 41 43 44 45 47 48
20 20 20 21 21 21 21 21 21 21 21 21 21 21 21 21 21 21 21 21 22 22 22 22 23 23 24 25 26 27 28 28 29 29 31 32 33 34 35 36 37 38 39 40 41 42 44 45 47 48 50 51
19 19 19 20 20 20 20 20 20 20 20 21 21 21 21 21 21 21 21 21 22 22 22 23 24 25 26 27 28 28 28 29 30 31 32 34 35 36 37 38 39 40 41 42 43 45 46 48 49 51 52 54
19 19 19 19 19 19 19 19 20 20 20 20 20 21 21 21 21 22 22 22 23 23 24 24 26 27 28 29 29 29 29 30 31 33 35 36 37 39 39 40 41 42 43 44 45 47 49 50 52 53 55 56
18 19 19 19 19 19 19 19 20 20 20 21 21 22 22 22 23 23 23 24 24 24 25 26 28 29 29 29 29 30 31 32 34 36 37 39 40 41 41 42 42 43 44 46 47 49 51 52 54 56 57 59
18 18 18 18 19 19 20 20 20 21 21 22 23 23 24 24 24 24 25 25 25 26 27 29 30 30 31 31 31 32 33 35 36 38 39 40 40 41 41 42 43 44 46 47 49 51 53 54 56 58 59 59
18 19 19 19 20 20 21 21 21 22 23 23 24 25 25 25 26 26 26 26 27 28 30 31 31 31 31 32 32 34 35 36 38 39 40 40 41 41 41 42 44 45 47 49 51 53 55 56 57 58 59 60
19 20 20 21 22 22 22 23 23 24 24 25 26 26 27 27 27 27 28 28 29 30 31 31 31 32 32 32 34 35 36 38 39 40 41 41 41 42 43 44 46 47 49 51 53 55 56 57 58 59 61 62
20 20 21 22 23 23 24 24 25 25 26 27 27 28 28 29 29 29 30 30 31 31 31 32 32 32 33 33 35 36 38 39 40 41 41 42 42 43 44 46 47 49 51 53 55 56 58 59 59 61 62 64
20 21 22 22 23 24 24 25 25 26 27 28 28 29 30 30 31 31 31 31 32 32 32 32 32 32 33 35 36 38 39 40 41 41 42 43 43 44 46 47 49 51 53 55 57 58 59 60 61 62 65 67
20 21 22 23 23 24 25 25 26 27 28 29 29 30 31 31 32 32 32 32 32 33 32 32 32 33 34 36 37 39 40 41 42 42 43 44 45 46 47 49 51 53 55 57 58 59 60 61 63 65 68 70
21 22 22 23 24 24 25 26 27 28 29 30 30 31 31 32 32 32 33 33 33 32 32 32 33 34 36 37 39 41 42 42 43 43 44 45 46 48 49 52 54 56 57 59 60 61 62 63 66 68 70 73
22 22 23 23 24 25 26 27 28 29 30 31 31 32 32 32 33 33 33 33 32 32 32 33 34 35 37 39 41 42 42 43 43 44 45 46 48 50 52 54 56 58 59 60 61 62 64 66 68 70 73 75
22 23 24 24 25 26 27 28 29 30 31 32 33 33 33 33 33 33 33 32 32 32 32 34 35 37 39 40 42 43 43 43 44 45 46 48 50 52 55 57 58 60 61 61 62 64 66 68 70 72 75 78
23 23 24 25 26 27 28 29 31 32 32 33 34 34 34 34 34 33 33 32 32 33 33 35 36 38 40 41 42 43 43 44 45 46 48 50 53 55 56 58 60 61 61 62 64 66 68 70 72 75 77 80
23 24 25 26 27 28 30 31 32 33 33 34 35 35 35 35 34 34 33 33 33 33 34 36 37 39 41 42 43 43 44 45 46 48 50 52 55 57 58 59 61 61 62 64 65 68 70 72 74 77 80 83
24 25 26 27 29 30 31 33 34 34 35 35 36 36 36 35 35 34 34 33 34 34 35 36 38 40 41 43 43 44 45 46 48 50 52 55 57 58 59 61 62 62 64 65 67 69 71 73 76 79 82 85
24 25 27 28 30 31 33 34 35 36 36 37 37 37 37 36 35 34 34 34 34 35 36 37 39 41 42 43 43 44 46 47 49 51 54 56 58 59 61 62 62 64 65 66 68 70 73 75 78 81 84 86
25 26 27 29 30 32 34 35 36 37 38 38 38 38 37 36 35 34 34 34 34 36 37 39 40 41 42 43 44 45 47 49 51 53 56 58 60 61 62 62 63 64 66 68 70 72 74 77 80 83 85 87
25 26 27 29 31 33 34 36 37 38 39 40 40 39 37 36 34 34 34 34 35 36 38 39 41 42 43 44 45 47 48 51 53 55 57 59 61 62 62 63 64 65 67 69 71 73 75 79 82 84 86 88
25 26 27 29 31 33 35 36 38 39 40 40 40 39 37 35 34 33 33 34 35 37 38 40 41 43 44 45 47 48 50 52 55 57 59 60 61 62 63 64 65 67 68 70 72 75 77 80 83 85 87 90
26 26 28 30 32 34 35 37 39 40 41 41 41 39 37 35 33 33 33 35 36 38 39 41 42 43 44 46 48 50 52 54 56 58 60 61 62 63 64 66 67 69 70 72 74 76 79 82 83 85 87 90
26 27 28 31 32 34 36 38 39 40 41 41 41 39 36 34 33 33 34 36 37 39 40 41 43 44 45 47 49 51 53 55 57 59 60 61 62 63 65 67 68 70 72 75 77 79 81 82 84 85 87 89
27 27 29 31 33 35 37 38 40 41 41 41 40 39 36 35 34 34 35 37 38 40 41 42 43 44 46 48 50 52 55 56 58 60 61 61 62 63 65 67 69 71 74 76 78 81 83 84 85 87 88 89
27 28 30 32 34 35 37 39 40 41 42 41 40 38 37 35 35 36 37 38 40 41 42 43 44 45 47 49 51 53 55 57 59 60 61 61 62 64 66 68 70 72 74 77 79 80 82 84 85 87 89 89
28 29 31 33 34 35 37 39 41 41 42 41 40 38 37 36 36 37 38 39 41 42 42 43 44 46 48 50 52 54 56 57 59 60 61 61 62 64 66 68 70 73 75 77 79 80 80 82 84 86 88 87
29 30 31 34 35 36 38 39 41 42 42 41 40 39 37 37 37 38 39 40 42 42 43 44 45 47 49 50 52 54 56 58 59 60 60 61 63 64 67 69 71 73 75 77 78 78 79 81 83 84 84 84
30 31 32 34 35 36 38 40 41 42 42 42 40 39 38 38 38 39 40 41 42 43 44 45 46 48 49 51 53 54 56 58 59 60 60 61 63 65 67 69 71 73 75 76 76 77 78 80 81 81 81 80
Wind_Direction
309 309 309 309 308 307 306 305 304 304 304 305 306 307 308 308 308 308 307 307 306 306 305 305 304 303 303 303 303 303 303 302 303 303 305 306 307 307 306 306 305 304 304 304 303 303 303 303 304 304 304 304
310 310 309 308 308 307 306 306 305 306 306 307 307 307 307 306 306 305 305 304 304 303 303 303 302 302 302 302 301 301 302 302 303 305 306 307 306 306 306 305 306 305 305 305 305 306 306 306 306 306 306 305
310 309 308 307 306 306 305 305 305 306 306 307 306 305 304 303 303 303 303 302 302 302 302 302 301 301 300 300 301 302 303 304 306 307 307 307 306 307 307 308 308 308 308 308 308 308 308 308 307 307 306 305
308 307 307 306 305 304 304 305 305 305 305 305 304 303 302 302 302 302 301 301 301 301 300 300 299 299 300 301 303 304 306 306 307 307 307 307 308 309 309 309 309 309 309 309 309 309 309 309 308 307 306 305
308 307 306 305 304 304 305 305 305 305 305 304 303 302 302 302 301 301 300 300 299 299 298 298 299 301 303 305 306 306 307 306 306 307 308 309 310 310 310 310 310 310 310 310 311 311 310 310 309 308 306 306
311 309 307 306 306 306 306 306 307 307 306 305 304 304 303 302 301 300 299 299 299 299 299 300 302 304 305 306 306 306 305 305 307 308 309 310 311 311 311 311 311 311 312 312 312 311 310 309 308 307 306 306
314 312 310 309 308 307 308 309 309 308 307 307 306 305 304 303 302 301 301 300 300 300 301 303 304 305 305 304 304 303 304 305 307 309 310 311 311 312 312 312 313 313 313 312 311 310 309 308 307 306 306 305
315 313 312 311 311 312 313 312 312 311 310 309 308 306 305 304 303 303 302 301 300 301 301 302 303 303 302 302 301 302 304 307 309 311 312 312 313 313 314 314 314 313 312 311 309 308 308 307 307 306 306 305
315 314 314 315 316 317 317 315 314 313 312 310 308 307 305 305 304 303 302 300 300 300 301 302 302 302 302 303 305 307 309 311 312 313 314 314 314 314 314 313 311 310 309 309 308 308 307 306 306 305 305 304
317 318 319 320 321 321 320 319 318 316 313 311 309 308 306 305 304 303 301 300 300 300 300 301 302 303 305 307 309 311 312 313 314 314 314 314 313 312 311 310 309 308 308 308 307 306 306 305 305 304 305 305
320 322 324 324 324 323 323 322 320 318 315 312 311 309 307 306 304 302 301 300 300 300 301 302 304 306 308 310 311 313 314 314 314 314 313 312 311 310 309 309 308 308 307 306 306 305 305 306 306 306 307 308
322 324 325 325 324 324 323 322 320 317 315 312 310 309 307 306 304 303 302 302 302 303 304 306 308 309 311 312 313 314 314 314 313 312 311 310 310 309 309 308 307 306 306 306 306 307 307 307 308 309 310 310
323 324 324 324 324 323 322 321 319 316 313 312 310 309 308 306 305 305 304 304 305 306 308 309 310 311 312 313 313 313 313 313 313 312 311 310 309 308 307 307 307 307 307 307 308 308 309 309 310 311 311 311
322 323 324 324 324 323 322 321 318 316 314 313 311 310 308 307 306 305 305 305 306 308 309 309 310 311 312 313 313 313 314 314 313 312 310 308 308 307 307 308 308 309 309 309 310 310 311 312 312 312 312 313
321 323 323 324 323 323 322 321 319 317 316 314 313 311 309 308 307 306 306 306 307 308 309 310 310 312 312 313 314 314 314 313 312 310 308 307 308 308 309 309 310 310 311 311 312 313 313 314 313 313 314 315
319 321 322 322 322 322 322 321 320 319 318 317 315 312 311 309 308 308 307 307 308 308 309 310 311 312 313 314 314 314 313 312 310 308 308 308 309 310 311 312 312 312 312 313 314 314 314 314 314 315 315 317
317 318 318 319 320 320 320 320 320 320 319 318 316 314 312 310 309 309 309 308 309 309 309 310 312 313 314 315 314 313 312 311 310 309 310 311 312 313 313 313 313 313 314 315 315 315 315 315 316 316 317 318
313 314 315 316 318 319 320 321 321 321 320 319 317 315 313 311 310 310 310 309 308 308 309 311 312 314 315 315 314 313 312 311 311 311 312 313 314 314 313 313 314 315 315 315 315 316 316 317 318 318 319 319
309 311 312 314 317 318 320 321 321 321 321 320 318 316 314 312 311 310 309 308 307 308 310 311 313 314 315 315 314 313 313 312 313 313 314 315 314 314 314 314 315 316 316 316 317 317 318 319 319 320 320 320
307 309 311 313 316 318 319 320 321 322 322 321 319 317 314 312 310 308 307 306 307 309 310 312 314 315 315 315 314 314 313 314 314 315 315 315 314 314 315 316 316 317 317 318 318 319 320 320 321 321 321 321
307 309 310 312 315 316 318 319 321 322 323 322 320 318 315 311 309 307 306 306 307 309 311 313 315 316 316 315 315 314 314 315 315 316 315 315 315 315 316 317 318 318 318 319 320 321 322 322 322 321 321 321
306 308 309 311 313 314 316 318 321 323 323 322 321 318 315 311 308 307 306 306 308 310 313 315 317 317 316 315 315 315 315 316 316 315 315 315 316 317 318 319 319 319 320 321 322 322 323 322 321 321 322 323
306 307 308 309 311 313 315 319 321 323 323 322 320 318 314 311 308 307 306 307 309 312 315 317 318 317 316 316 316 316 316 316 316 316 316 316 317 318 319 320 320 321 322 322 323 323 323 322 322 323 325 326
305 307 307 308 310 312 315 319 321 323 323 321 319 317 314 311 308 307 307 309 312 315 317 318 317 317 316 317 317 317 316 316 316 317 317 318 319 320 321 321 322 322 323 323 324 324 323 323 324 326 327 328
305 306 307 307 309 312 316 319 321 322 322 320 319 317 315 311 309 309 310 312 315 317 318 318 317 317 318 318 317 317 317 317 318 318 319 320 321 322 323 323 324 324 324 325 324 324 324 325 326 328 329 330
304 305 306 307 309 313 316 319 321 322 321 320 319 318 315 313 312 312 313 315 316 318 318 318 318 318 318 318 317 317 317 318 319 320 320 321 322 323 324 325 325 326 326 326 325 325 326 327 328 329 330 330
303 305 305 307 309 313 316 318 320 321 320 320 320 319 317 315 314 314 315 316 317 318 318 318 318 318 318 317 317 317 317 318 320 321 322 322 323 324 325 326 326 327 327 327 327 328 329 330 331 331 331 332
303 304 306 307 310 313 315 318 320 320 320 321 321 320 317 315 314 314 315 317 318 318 318 318 318 318 317 317 317 317 318 320 321 322 322 323 324 325 326 327 327 328 328 328 329 330 331 333 333 333 333 333
302 304 306 308 310 312 315 317 319 320 321 321 321 320 317 315 314 315 316 317 318 318 318 318 318 317 317 316 317 318 320 321 322 322 323 324 325 326 327 327 328 328 329 330 331 332 333 334 334 335 335 334
302 305 306 307 309 312 314 317 319 320 321 321 321 319 317 315 314 315 316 318 318 318 317 317 317 317 316 317 317 319 321 322 322 323 324 325 326 327 327 328 329 329 330 331 332 333 334 335 335 336 335 334
302 305 306 307 308 311 314 316 318 320 321 321 320 318 316 314 314 315 316 317 318 317 317 317 317 317 317 317 319 320 321 322 322 323 324 325 326 327 328 329 330 330 331 332 333 334 335 336 336 336 335 335
Height
5805 5803 5802 5801 5799 5798 5796 5795 5794 5793 5792 5791 5790 5789 5788 5786 5785 5784 5783 5782 5780 5779 5778 5777 5776 5775 5774 5773 5772 5771 5770 5769 5767 5766 5765 5764 5762 5761 5760 5758 5757 5755 5753 5752 5749 5747 5745 5743 5742 5739 5737 5735
5803 5802 5800 5799 5798 5796 5795 5794 5792 5791 5790 5789 5788 5787 5786 5784 5783 5782 5781 5779 5778 5777 5776 5775 5774 5773 5772 5771 5770 5769 5767 5766 5765 5764 5762 5761 5760 5758 5757 5755 5753 5752 5750 5747 5745 5743 5741 5739 5737 5735 5733 5730
5802 5800 5799 5797 5796 5794 5793 5792 5791 5790 5789 5787 5786 5785 5784 5782 5781 5780 5778 5777 5776 5775 5773 5772 5771 5770 5769 5768 5767 5766 5765 5764 5762 5761 5759 5758 5757 5755 5753 5751 5750 5748 5745 5743 5741 5739 5737 5734 5732 5730 5728 5725
5800 5798 5797 5795 5794 5793 5791 5790 5789 5788 5786 5785 5784 5783 5781 5780 5779 5777 5776 5775 5774 5772 5771 5770 5769 5768 5767 5766 5765 5764 5762 5761 5759 5758 5756 5755 5753 5751 5750 5748 5746 5744 5741 5739 5737 5735 5733 5730 5727 5725 5722 5720
5798 5797 5795 5794 5792 5791 5789 5788 5787 5786 5784 5783 5782 5780 5779 5778 5777 5775 5774 5773 5771 5770 5769 5768 5767 5766 5764 5763 5762 5761 5759 5758 5757 5755 5753 5751 5749 5748 5746 5744 5742 5740 5737 5735 5733 5730 5728 5725 5722 5719 5717 5714
5796 5795 5793 5792 5790 5789 5788 5786 5785 5784 5782 5781 5780 5778 5777 5775 5774 5773 5772 5770 5769 5768 5766 5765 5764 5763 5762 5761 5759 5758 5757 5755 5754 5752 5750 5748 5746 5744 5742 5740 5737 5735 5733 5730 5728 5725 5722 5719 5717 5714 5711 5709
5795 5793 5792 5790 5789 5787 5786 5784 5783 5782 5780 5779 5777 5776 5775 5773 5772 5770 5769 5768 5766 5765 5764 5763 5762 5761 5759 5758 5757 5755 5754 5752 5750 5748 5746 5744 5742 5740 5737 5735 5733 5730 5728 5726 5723 5720 5718 5714 5712 5709 5706 5704
5793 5792 5790 5789 5787 5785 5784 5783 5781 5780 5778 5777 5775 5774 5772 5771 5769 5768 5767 5765 5764 5763 5761 5760 5759 5758 5757 5755 5754 5752 5751 5749 5747 5744 5742 5740 5737 5735 5733 5730 5728 5726 5724 5722 5719 5716 5713 5710 5707 5704 5701 5698
5792 5790 5789 5787 5785 5784 5782 5781 5779 5778 5776 5775 5773 5771 5770 5768 5767 5765 5764 5763 5761 5760 5759 5757 5756 5755 5753 5752 5750 5748 5746 5745 5743 5740 5738 5735 5733 5731 5729 5727 5725 5723 5720 5718 5715 5712 5709 5705 5702 5699 5696 5693
5790 5789 5787 5785 5784 5782 5780 5779 5777 5776 5774 5773 5771 5769 5768 5766 5765 5763 5762 5760 5759 5757 5756 5754 5753 5751 5750 5748 5746 5745 5743 5741 5739 5737 5735 5732 5730 5728 5726 5724 5722 5719 5717 5714 5711 5707 5704 5701 5697 5694 5690 5687
5789 5787 5785 5783 5782 5780 5779 5777 5775 5774 5772 5770 5769 5767 5765 5764 5762 5761 5759 5757 5756 5754 5753 5751 5750 5748 5747 5745 5743 5742 5740 5738 5736 5734 5731 5729 5727 5725 5723 5721 5718 5715 5712 5709 5706 5702 5699 5695 5691 5687 5683 5679
5787 5785 5783 5782 5780 5778 5777 5775 5773 5772 5770 5768 5766 5765 5763 5761 5760 5758 5756 5755 5753 5751 5750 5748 5747 5745 5744 5742 5740 5739 5736 5734 5732 5730 5728 5725 5723 5721 5719 5717 5714 5711 5708 5704 5701 5697 5693 5689 5685 5681 5677 5672
5785 5783 5782 5780 5779 5777 5775 5773 5772 5770 5768 5766 5764 5762 5761 5759 5757 5755 5753 5752 5750 5748 5746 5745 5743 5742 5741 5739 5737 5735 5733 5731 5728 5726 5724 5721 5719 5717 5715 5712 5709 5706 5702 5699 5695 5691 5687 5683 5679 5674 5669 5664
5784 5782 5780 5779 5777 5775 5774 5772 5770 5768 5766 5764 5762 5760 5758 5756 5754 5752 5750 5749 5747 5745 5743 5742 5740 5739 5738 5736 5734 5732 5729 5727 5724 5722 5719 5717 5715 5713 5710 5707 5704 5700 5697 5693 5689 5685 5680 5676 5671 5666 5661 5656
5782 5780 5779 5777 5775 5773 5772 5770 5768 5766 5764 5762 5760 5758 5756 5753 5751 5749 5748 5746 5744 5742 5740 5739 5737 5736 5734 5732 5730 5728 5725 5723 5720 5718 5715 5713 5711 5708 5705 5702 5698 5695 5691 5686 5682 5677 5673 5668 5663 5658 5653 5648
5780 5778 5777 5775 5773 5772 5770 5768 5766 5763 5761 5759 5757 5755 5753 5751 5748 5746 5745 5743 5741 5739 5737 5736 5734 5732 5730 5729 5727 5724 5722 5719 5717 5714 5711 5708 5706 5703 5700 5696 5692 5688 5684 5680 5675 5670 5666 5661 5656 5651 5646 5641
5778 5777 5775 5773 5772 5770 5768 5766 5763 5761 5759 5757 5754 5752 5750 5748 5746 5743 5741 5740 5738 5736 5734 5732 5730 5729 5727 5725 5723 5720 5718 5715 5713 5709 5706 5703 5700 5697 5694 5690 5686 5682 5678 5673 5669 5664 5659 5653 5648 5643 5638 5633
5777 5775 5773 5772 5770 5768 5766 5763 5761 5759 5756 5754 5752 5749 5747 5745 5743 5740 5738 5736 5734 5733 5731 5729 5727 5725 5723 5721 5718 5716 5713 5711 5708 5704 5701 5698 5695 5692 5688 5684 5680 5676 5672 5667 5662 5657 5652 5646 5641 5636 5631 5625
5775 5773 5772 5770 5768 5766 5763 5761 5758 5756 5754 5751 5749 5746 5744 5742 5739 5737 5735 5733 5731 5729 5727 5725 5723 5721 5719 5717 5714 5711 5708 5706 5703 5699 5696 5693 5689 5686 5683 5679 5674 5670 5665 5660 5655 5650 5645 5640 5634 5629 5623 5616
5773 5771 5769 5767 5765 5763 5760 5758 5756 5753 5751 5748 5746 5743 5741 5738 5736 5734 5732 5730 5728 5726 5724 5722 5720 5717 5715 5712 5709 5706 5704 5701 5697 5694 5690 5687 5684 5680 5677 5672 5668 5664 5658 5653 5648 5644 5638 5633 5628 5622 5615 5609
5770 5769 5767 5765 5762 5760 5758 5755 5753 5751 5748 5745 5743 5740 5738 5735 5733 5731 5729 5727 5725 5723 5720 5718 5716 5713 5710 5708 5705 5702 5699 5695 5692 5689 5685 5681 5678 5674 5671 5666 5661 5657 5652 5647 5642 5637 5632 5626 5621 5615 5608 5601
5768 5766 5764 5762 5760 5757 5755 5753 5750 5748 5745 5742 5739 5737 5734 5732 5730 5728 5726 5724 5722 5720 5717 5714 5711 5709 5706 5703 5700 5697 5694 5690 5687 5683 5680 5676 5672 5668 5664 5660 5655 5650 5645 5641 5635 5630 5626 5620 5614 5608 5601 5592
5765 5763 5761 5759 5757 5755 5752 5750 5747 5745 5742 5739 5736 5734 5731 5729 5727 5725 5723 5721 5719 5716 5713 5710 5707 5704 5702 5698 5695 5692 5689 5685 5682 5678 5674 5670 5666 5661 5657 5653 5649 5644 5639 5634 5629 5624 5620 5615 5607 5599 5591 5583
5762 5760 5759 5756 5754 5752 5750 5747 5744 5742 5739 5736 5733 5730 5728 5726 5723 5721 5719 5717 5715 5712 5709 5706 5703 5700 5697 5694 5690 5687 5684 5680 5676 5672 5668 5664 5660 5655 5651 5646 5641 5637 5633 5628 5623 5618 5613 5607 5600 5591 5582 5573
5759 5757 5756 5753 5751 5749 5747 5744 5741 5739 5736 5733 5730 5727 5724 5722 5720 5718 5716 5713 5711 5708 5705 5702 5699 5696 5693 5689 5686 5682 5679 5675 5671 5667 5663 5658 5654 5649 5644 5639 5634 5629 5625 5621 5617 5612 5606 5599 5592 5584 5575 5567
5757 5755 5753 5750 5748 5746 5744 5741 5738 5736 5733 5729 5726 5724 5721 5719 5716 5714 5712 5709 5707 5704 5701 5698 5695 5691 5688 5685 5682 5678 5674 5670 5666 5662 5657 5653 5648 5643 5638 5633 5628 5623 5617 5612 5607 5602 5596 5590 5584 5577 5570 5562
5754 5752 5749 5747 5745 5743 5740 5738 5735 5732 5729 5726 5723 5720 5717 5715 5713 5710 5708 5706 5703 5700 5697 5694 5690 5687 5684 5680 5677 5674 5670 5666 5661 5657 5652 5648 5643 5638 5633 5628 5622 5617 5611 5605 5598 5590 5583 5576 5569 5564 5559 5554
5750 5749 5746 5744 5742 5739 5737 5735 5732 5729 5726 5722 5719 5716 5714 5711 5709 5707 5705 5702 5699 5696 5693 5690 5686 5683 5680 5676 5673 5669 5665 5661 5656 5652 5647 5642 5638 5633 5628 5622 5617 5612 5606 5599 5591 5583 5574 5566 5557 5549 5543 5539
5747 5745 5743 5741 5738 5736 5734 5731 5729 5725 5722 5718 5715 5713 5710 5708 5706 5703 5701 5698 5695 5692 5689 5686 5682 5679 5676 5672 5669 5665 5661 5656 5652 5647 5642 5638 5633 5628 5623 5617 5612 5606 5600 5593 5585 5577 5569 5561 5552 5542 5533 5525
5744 5742 5740 5737 5735 5733 5730 5728 5725 5722 5718 5715 5712 5709 5707 5705 5702 5700 5697 5694 5691 5688 5685 5681 5678 5675 5671 5668 5664 5660 5657 5652 5648 5643 5638 5633 5628 5623 5617 5612 5606 5600 5593 5586 5579 5572 5564 5556 5548 5539 5530 5520
5741 5739 5737 5734 5732 5729 5727 5725 5722 5718 5715 5711 5708 5706 5703 5701 5698 5696 5693 5690 5687 5684 5681 5677 5674 5670 5667 5663 5660 5656 5652 5648 5644 5639 5634 5629 5624 5618 5612 5606 5600 5594 5588 5581 5573 5567 5559 5551 5543 5536 5528 5519